Regional Weather Roundup
Issued by NWS San Angelo, TX

Home | Current Version | Previous Version | Text Only | Print | Product List | Glossary On
Versions: 1 2 3 4 5 6 7 8 9 10 11 12 13 14 15 16 17 18 19 20 21 22 23 24 25 26 27 28 29 30 31 32 33 34 35 36 37 38 39 40 41 42 43 44 45 46 47 48 49 50
000
ASUS44 KSJT 200410
RWRSJT
WEST CENTRAL TEXAS REGIONAL WEATHER ROUNDUP
NATIONAL WEATHER SERVICE SAN ANGELO TX
1100 PM CDT FRI SEP 19 2014

NOTE: "FAIR" INDICATES FEW OR NO CLOUDS BELOW 12,000 FEET WITH NO
SIGNIFICANT WEATHER AND/OR OBSTRUCTIONS TO VISIBILITY.

TXZ049-054-064>066-071>073-076>078-098-099-113-114-127-128-139-140-
154-155-168>170-200500
...LOCATIONS ACROSS WEST CENTRAL TEXAS...

CITY           SKY/WX    TMP DP  RH WIND       PRES   REMARKS
SAN ANGELO     PTCLDY    72  69  90 E6        29.97R
ABILENE        MOCLDY    74  70  87 SE5       29.98R
DYESS AFB      CLOUDY    74  66  75 S6        29.98R
JUNCTION       CLEAR     74  70  87 E8        29.96F
SWEETWATER     CLOUDY    73  71  91 SE8       30.03S
BROWNWOOD      MOCLDY    73  72  94 CALM      29.97S
COLEMAN        MOCLDY    72  70  91 S3        29.98F
SONORA         CLEAR     75  68  78 E7        30.02R
OZONA          FAIR      73  70  88 E5        30.00S
BRADY          CLEAR     70  70 100 SE3       29.98S
$$

TEXAS PANHANDLE/OKLAHOMA PANHANDLE

CITY           SKY/WX    TMP DP  RH WIND       PRES   REMARKS
AMARILLO       CLEAR     67  64  90 S14       30.05R
BORGER         CLEAR     72  63  73 S10       30.01S
CANADIAN       CLEAR     73  63  70 S8        29.98S
DALHART        CLEAR     67  64  90 S10       30.06R
DUMAS          CLEAR     65  63  93 S9        30.04R
GUYMON         NOT AVBL
HEREFORD       CLEAR     66  65  97 SE7       30.07R
PAMPA          CLEAR     65  60  83 S7        30.04R
PERRYTON       CLEAR     70  58  66 S7        30.00R
$$

SOUTHERN PANHANDLE/SOUTH PLAINS/ROLLING PLAINS

CITY           SKY/WX    TMP DP  RH WIND       PRES   REMARKS
LUBBOCK        CLOUDY    69  67  93 SE6       30.03R
SNYDER         CLOUDY    72  70  94 SE6       30.01R
CHILDRESS      PTCLDY    74  66  76 SE10      29.99R
SEMINOLE       CLOUDY    69  68  98 CALM      30.04R FOG
$$

PERMIAN BASIN

CITY           SKY/WX    TMP DP  RH WIND       PRES   REMARKS
MIDLAND        CLOUDY    72  69  90 SE9       29.99S
ODESSA         CLOUDY    72  68  87 SE10      30.00R
WINK           CLOUDY    74  70  87 SE16      29.94F
$$

FAR WEST/SOUTHWEST MOUNTAINS/TRANS PECOS

CITY           SKY/WX    TMP DP  RH WIND       PRES   REMARKS
ALPINE         MOCLDY    67  62  85 SW6       30.13R
DRYDEN           N/A     84  69  60 SE10      29.93R
EL PASO        PTCLDY    76  64  66 CALM      29.99R
FORT STOCKTON  LGT RAIN  73  69  87 W10       29.99R
GUADALUPE PASS CLOUDY    65  65 100 E23         N/A  FOG
MARFA          PTCLDY    66  64  94 E5        30.12R
PECOS          CLOUDY    73  68  87 SE10      29.95S
$$

DALLAS/FORT WORTH METROPLEX

CITY           SKY/WX    TMP DP  RH WIND       PRES   REMARKS
DFW AIRPORT    MOCLDY    81  69  67 SE8       29.95R
FTW MEACHAM    MOCLDY    81  68  64 SE10      29.95R
DAL-EXECUTIVE  MOCLDY    79  69  71 SE8       29.96R
GRAND PRAIRIE  PTCLDY    80  67  64 E9        29.97R
ADDISON        PTCLDY    81  68  65 E10       29.97S
MESQUITE       CLEAR     78  69  74 E7        29.96R
LANCASTER      MOCLDY    76  68  77 CALM      29.97R
$$

NORTH CENTRAL TEXAS

CITY           SKY/WX    TMP DP  RH WIND       PRES   REMARKS
SHRMAN/DENISON CLEAR     75  69  81 E8        29.99R
GAINESVILLE    CLEAR     75  69  82 E9        29.99S
BRIDGEPORT     PTCLDY    75  65  71 SE5       29.97S
DENTON         PTCLDY    80  69  69 SE9       29.96R
WAXAHACHIE     PTCLDY    76  66  71 CALM      29.98R
GRANBURY       LGT RAIN  80  70  71 SE7       29.97R
$$

WESTERN NORTH TEXAS

CITY           SKY/WX    TMP DP  RH WIND       PRES   REMARKS
WICHITA FALLS  PTCLDY    74  68  81 E8        29.95R
VERNON         MOCLDY    75  64  69 SE3       29.97S
BRECKENRIDGE   CLOUDY    76  67  73 SE6       29.96S
COMANCHE       MOCLDY    74  69  85 SE5       29.97S
$$

CENTRAL AND SOUTH CENTRAL TEXAS

CITY           SKY/WX    TMP DP  RH WIND       PRES   REMARKS
AUSTIN/BERGSTM MOCLDY    76  74  93 CALM      29.93S
WACO           MOCLDY    75  71  87 SE3       29.95R
HILLSBORO      PTCLDY    77  69  77 SE6       29.96R
TEMPLE         PTCLDY    73  68  83 E6        29.95R
KILLEEN-GRAY   PTCLDY    75  72  88 E8        29.92R
FORT HOOD      PTCLDY    77  72  84 E5        29.96R
GEORGETOWN     MOCLDY    75  72  88 E3        29.95R
LAGO VISTA     FAIR      75  71  89 E5        29.96S
SAN MARCOS     PTCLDY    75  70  83 CALM      29.94R
NEW BRAUNFELS  CLOUDY    77  73  87 E6        29.92R
RANDOLPH AFB   PTCLDY    75  72  90 E5        29.94R
SAN ANTONIO    MOCLDY    80  73  79 E8        29.94R
STINSON        CLOUDY    79  74  84 SE12      29.92R
PLEASANTON     NOT AVBL
LA GRANGE      PTCLDY    79  76  91 SE6       29.91S
GIDDINGS       PTCLDY    76  73  87 CALM      29.97S
$$

EAST TEXAS

CITY           SKY/WX    TMP DP  RH WIND       PRES   REMARKS
PARIS          CLEAR     73  66  78 E7        29.99S
CLARKSVILLE    NOT AVBL
TYLER          CLEAR     78  71  79 SE7       29.96S
LONGVIEW       CLEAR     75  69  81 CALM      29.97R
PALESTINE      CLEAR     76  72  87 CALM      29.97R
NACOGDOCHES    CLEAR     72  70  94 E3        29.96F
$$

TEXAS HILL COUNTRY AND EDWARDS PLATEAU

CITY           SKY/WX    TMP DP  RH WIND       PRES   REMARKS
LLANO          FOG       73  73 100 CALM      29.99R VSB 1/2
HORSESHOE BAY  FAIR      74  74 100 CALM      29.96R
KERRVILLE      MOCLDY    74  72  93 NE3       29.98R
FREDERICKSBRG  PTCLDY    73  71  95 CALM      29.98R
ROCKSPRINGS    PTCLDY    73  72  94 E7        30.00S
HONDO          MOCLDY    79  71  76 SE8       29.95R
UVALDE         MOCLDY    78  73  83 E7        29.93R
DEL RIO        CLEAR     83  72  69 E14G22    29.89R
$$

SOUTHEAST TEXAS

CITY           SKY/WX    TMP DP  RH WIND       PRES   REMARKS
COLLEGE STN    PTCLDY    76  73  91 SE7       29.93S
CALDWELL       CLEAR     75  73  94 CALM      29.97R
CROCKETT       CLEAR     79  75  89 CALM      29.98S
BRENHAM        PTCLDY    77  74  92 CALM      29.94S
HUNTSVILLE     MOCLDY    75  71  87 CALM      29.95R
CONROE         MOCLDY    73  72  96 CALM      29.95R
HOUSTON BUSH   MOCLDY    74  73  97 CALM      29.93R
HOUSTON HOBBY  MOCLDY    77  75  93 E3        29.92R
PERLAND        PTCLDY    78  75  90 E5        29.93R
WHARTON        PTCLDY    75  73  95 CALM      29.93S
$$

THE UPPER TEXAS COAST

CITY           SKY/WX    TMP DP  RH WIND       PRES   REMARKS
ORANGE         CLEAR    N/A N/A N/A CALM      29.95S
PORT ARTHUR    CLEAR     78  74  87 E7        29.92S
GALVESTON      PTCLDY    81  75  82 E14       29.92S
ANGLETON       PTCLDY    77  75  93 CALM      29.92R
BAY CITY       MOCLDY   N/A N/A N/A CALM      29.91S
$$

TEXAS COASTAL BEND, RIO GRANDE PLAINS DEEP SOUTH TEXAS

CITY           SKY/WX    TMP DP  RH WIND       PRES   REMARKS
VICTORIA       CLEAR     78  75  90 E6        29.91S
BEEVILLE       CLOUDY    79  74  86 E8        29.91R
ROCKPORT       PTCLDY    82  75  79 E13       29.89R
PORT ARANSAS   MOCLDY    82  75  81 E12       29.88S
PORT LAVACA    MOCLDY    78  75  90 E6        29.90R
CORPUS CHRISTI PTCLDY    81  76  84 E8        29.88R
KINGSVILLE NAS CLEAR     79  79 100 E6        29.88R
COTULLA        CLEAR     82  72  71 SE13      29.90R
LAREDO         PTCLDY    84  77  80 SE14      29.90R
BROWNSVILLE    MOCLDY    83  79  88 E3        29.86R
PORT ISABEL    PTCLDY    83  78  85 SE9       29.85S
HEBBRONVILLE     N/A     80  76  86 SE9       29.91R
MCALLEN        PTCLDY    81  79  94 SE3       29.87R
WESLACO        PTCLDY    82  76  83 SE6       29.86R
FALFURRIAS     PTCLDY   N/A N/A N/A E3        29.87S
EDINBURG       PTCLDY    83  78  84 E3        29.87R
$$


USA.gov is the U.S. government's official web portal to all federal, state and local government web resources and services.